User: anonymous   Login
Location: Saddleback Butte
(34.6776°N, 117.8050°W)
Time: 21:22:59
(UTC-07:00)
Language:

Cosmos 1862 Rocket - Orbit

View from above orbital plane
View from above orbital plane
View from above satellite
View from above satellite

Ground track
Ground track

The orbit data is extracted from the following two-line orbital elements,

1 18153U 87055B   15188.70492549  .00000244  00000-0  27060-4 0  9995
2 18153 082.4997 051.4369 0020143 263.3128 096.5794 14.82982101513052
Epoch (UTC): 07 July 2015 16:55:05
Eccentricity: 0.0020143
inclination: 82.4997°
perigee height: 606 km
apogee height: 634 km
right ascension of ascending node: 51.4369°
argument of perigee: 263.3128°
revolutions per day: 14.82982101
mean anomaly at epoch: 96.5794°
orbit number at epoch: 51305

The dashed part of the orbit path shows where the satellite is in the earth's shadow,  

DLR